Location: Unspecified
(0.0000°N, 0.0000°E)
Time: 15:49:41
(UTC+00:00)

Vanguard 1 Rocket - Pass Details

Date: 11 December 2017
Orbit: 652 x 4225 km, 34.3° (Epoch: 22 July)

Event Time Altitude Azimuth Distance (km) Brightness Sun altitude
Rises 12:50:21 0° 218° (SW) 2,958 10.4 63.1°
Reaches altitude 10° 12:52:35 10° 209° (SSW) 2,086 9.9 62.8°
Maximum altitude 12:56:49 38° 140° (SE) 1,177 8.7 62.3°
Drops below altitude 10° 13:02:39 10° 73° (ENE) 2,901 9.9 61.5°
Sets 13:06:20 0° 65° (ENE) 4,322 10.6 60.9°
